Flag Weather past 2 weeks in Rochester, New York, U.S.A.

Now
25 °F

Mostly cloudy.


Feels Like: 19 °F
Forecast: 25 / 41 °F
Wind: 5 mph from Southwest

Location: Greater Rochester International Airport

Current Time: Nov 28, 2014 at 11:07:43 PM

Latest Report: Nov 28, 2014 at 9:54 PM


Visibility: 10 mi

Pressure: 30.25 "Hg

Humidity: 72%

Dew point: 17 °F

Location of RochesterLocation

Historic Weather in Rochester — Graph

°F

Rochester temperature yesterday

Maximum temperature yesterday: 33 °F (at 1:54 PM)
Minimum temperature yesterday: 28 °F (at 3:54 AM)
Average temperature yesterday: 30 °F

Past Weeks' High & Low Weather Summary

 TemperatureHumidityPressure
High69 °F (Nov 24, 11:54 AM)97% (Nov 17, 12:54 PM)30.47 "Hg (Nov 17, 12:54 PM)
Low15 °F (Nov 19, 3:54 AM)35% (Nov 22, 10:54 AM)29.26 "Hg (Nov 24, 1:54 PM)
Average33 °F70%30.02 "Hg
* Reported Nov 13 8:54 PM — Nov 28 8:54 PM, Rochester, Weather by CustomWeather, © 2014

Note: Actual official high and low records may vary slightly from our data, if they occured in-between our weather recording intervals... More about our weather records

Advertising

Rochester weather history for previous 24 hours

 ConditionsComfort  
Time TempWeatherWind HumidityBarometerVisibility
8:54 PM
Nov 28
25 °FMostly cloudy.5 mph72%30.25 "Hg10 mi
7:54 PM24 °FOvercast.5 mph71%30.26 "Hg10 mi
6:54 PM25 °FMostly cloudy.6 mph69%30.26 "Hg10 mi
5:54 PM25 °FPassing clouds.5 mph63%30.25 "Hg10 mi
4:54 PM26 °FPassing clouds.10 mph57%30.26 "Hg10 mi
3:54 PM27 °FPartly sunny.9 mph53%30.24 "Hg10 mi
2:54 PM26 °FBroken clouds.12 mph57%30.24 "Hg10 mi
1:54 PM26 °FLight snow. More clouds than sun.10 mph69%30.24 "Hg9 mi
12:54 PM26 °FLight snow. Broken clouds.13 mph69%30.25 "Hg9 mi
11:54 AM25 °FLight snow. Broken clouds.14 mph75%30.26 "Hg5 mi
10:54 AM25 °FLight snow. Cloudy.14 mph72%30.27 "Hg5 mi
9:58 AM24 °FLight snow. Broken clouds.15 mph77%30.25 "Hg3 mi
8:54 AM24 °FLight snow. Partly sunny.13 mph75%30.27 "Hg8 mi
7:54 AM24 °FLight snow. Mostly cloudy.14 mph75%30.25 "Hg4 mi
6:54 AM25 °FLight snow. Overcast.15 mph69%30.24 "Hg9 mi
5:54 AM25 °FLight snow. Mostly cloudy.13 mph66%30.23 "Hg9 mi
4:54 AM26 °FLight snow. Overcast.12 mph63%30.20 "Hg9 mi
3:54 AM27 °FLight snow. Overcast.14 mph81%30.19 "Hg5 mi
2:54 AM28 °FLight snow. Ice fog.8 mph89%30.17 "Hg2 mi
1:54 AM29 °FLight snow. Mostly cloudy.9 mph82%30.16 "Hg6 mi
12:54 AM29 °FLight snow. Overcast.8 mph79%30.14 "Hg8 mi
11:54 PM
Nov 27
30 °FOvercast.6 mph69%30.13 "Hg10 mi
Weather by CustomWeather, © 2014

See weather overviewHow to use our weather pages